| time (UTC) | temp F | wind direction | speed MPH | gust MPH | rain 1hr in | rain 24hr in | rain mn in | humidity % | barometer mb |
| 20260902180144 | 78 | 211 | 0.0 | 2.0 | 0.00 | 0.00 | 0.00 | 38 | 1027.5 |
| 20260902175644 | 77 | 154 | 6.0 | 7.0 | 0.00 | 0.00 | 0.00 | 39 | 1027.4 |
| 20260902175140 | 76 | 93 | 4.0 | 5.0 | 0.00 | 0.00 | 0.00 | 40 | 1027.5 |
| 20260902174636 | 76 | 251 | 3.0 | 3.0 | 0.00 | 0.00 | 0.00 | 41 | 1027.5 |
| 20260902174131 | 78 | 235 | 1.0 | 2.0 | 0.00 | 0.00 | 0.00 | 39 | 1027.8 |
| 20260902173626 | 76 | 195 | 1.0 | 2.0 | 0.00 | 0.00 | 0.00 | 40 | 1027.6 |
| 20260902173121 | 77 | 190 | 4.0 | 5.0 | 0.00 | 0.00 | 0.00 | 39 | 1027.6 |
| 20260902172621 | 77 | 316 | 6.0 | 10.0 | 0.00 | 0.00 | 0.00 | 39 | 1027.6 |
| 20260902172115 | 76 | 346 | 7.0 | 9.0 | 0.00 | 0.00 | 0.00 | 40 | 1027.4 |
| 20260902171611 | 77 | 232 | 1.0 | 2.0 | 0.00 | 0.00 | 0.00 | 40 | 1027.5 |
| 20260902171107 | 76 | 206 | 1.0 | 2.0 | 0.00 | 0.00 | 0.00 | 40 | 1027.3 |
| 20260902170602 | 77 | 75 | 0.0 | 2.0 | 0.00 | 0.00 | 0.00 | 40 | 1027.5 |
| 20260902170057 | 75 | 293 | 1.0 | 2.0 | 0.00 | 0.00 | 0.00 | 42 | 1027.5 |
| 20260902165557 | 76 | 339 | 1.0 | 2.0 | 0.00 | 0.00 | 0.00 | 41 | 1027.9 |
| 20260902165052 | 78 | 235 | 1.0 | 2.0 | 0.00 | 0.00 | 0.00 | 38 | 1027.8 |
| 20260902164547 | 78 | 295 | 4.0 | 5.0 | 0.00 | 0.00 | 0.00 | 37 | 1027.4 |
| 20260902164045 | 78 | 232 | 3.0 | 5.0 | 0.00 | 0.00 | 0.00 | 37 | 1027.6 |
| 20260902163541 | 77 | 246 | 4.0 | 5.0 | 0.00 | 0.00 | 0.00 | 38 | 1027.8 |
| 20260902163039 | 78 | 32 | 10.0 | 12.0 | 0.00 | 0.00 | 0.00 | 37 | 1027.5 |
| 20260902162533 | 77 | 235 | 3.0 | 5.0 | 0.00 | 0.00 | 0.00 | 39 | 1027.5 |
| 20260902162029 | 76 | 266 | 2.0 | 5.0 | 0.00 | 0.00 | 0.00 | 40 | 1027.5 |
| 20260902161524 | 75 | 201 | 2.0 | 3.0 | 0.00 | 0.00 | 0.00 | 39 | 1027.6 |
| 20260902161019 | 76 | 265 | 3.0 | 3.0 | 0.00 | 0.00 | 0.00 | 38 | 1027.4 |
| 20260902160515 | 76 | 217 | 2.0 | 3.0 | 0.00 | 0.00 | 0.00 | 38 | 1027.4 |
| 20260902160015 | 76 | 274 | 2.0 | 2.0 | 0.00 | 0.00 | 0.00 | 41 | 1027.5 |
| 20260902155508 | 76 | 163 | 3.0 | 5.0 | 0.00 | 0.00 | 0.00 | 39 | 1027.3 |
| 20260902155007 | 76 | 244 | 3.0 | 3.0 | 0.00 | 0.00 | 0.00 | 40 | 1027.5 |
| 20260902154503 | 76 | 315 | 2.0 | 2.0 | 0.00 | 0.00 | 0.00 | 40 | 1027.6 |
| 20260902153957 | 74 | 306 | 1.0 | 2.0 | 0.00 | 0.00 | 0.00 | 42 | 1027.4 |
| 20260902153456 | 74 | 91 | 3.0 | 5.0 | 0.00 | 0.00 | 0.00 | 42 | 1027.5 |
| 20260902152951 | 74 | 214 | 1.0 | 2.0 | 0.00 | 0.00 | 0.00 | 43 | 1027.5 |
| 20260902152448 | 75 | 91 | 2.0 | 2.0 | 0.00 | 0.00 | 0.00 | 41 | 1027.1 |
| 20260902151943 | 73 | 234 | 1.0 | 2.0 | 0.00 | 0.00 | 0.00 | 43 | 1027.3 |
| 20260902151439 | 72 | 147 | 3.0 | 3.0 | 0.00 | 0.00 | 0.00 | 44 | 1027.3 |
| 20260902150932 | 73 | 237 | 0.0 | 0.0 | 0.00 | 0.00 | 0.00 | 45 | 1026.9 |
| 20260902150429 | 75 | 236 | 2.0 | 2.0 | 0.00 | 0.00 | 0.00 | 42 | 1027.5 |
| 20260902145928 | 74 | 233 | 2.0 | 2.0 | 0.00 | 0.00 | 0.00 | 44 | 1026.9 |
| 20260902145424 | 74 | 79 | 1.0 | 2.0 | 0.00 | 0.00 | 0.00 | 42 | 1027.0 |
| 20260902144918 | 73 | 148 | 2.0 | 2.0 | 0.00 | 0.00 | 0.00 | 46 | 1027.3 |
| 20260902144415 | 71 | 220 | 2.0 | 2.0 | 0.00 | 0.00 | 0.00 | 47 | 1027.4 |
| 20260902143914 | 71 | 266 | 2.0 | 2.0 | 0.00 | 0.00 | 0.00 | 50 | 1027.3 |
| 20260902143409 | 70 | 246 | 3.0 | 3.0 | 0.00 | 0.00 | 0.00 | 52 | 1027.1 |
| 20260902142905 | 70 | 251 | 3.0 | 5.0 | 0.00 | 0.00 | 0.00 | 53 | 1027.3 |
| 20260902142401 | 69 | 234 | 2.0 | 3.0 | 0.00 | 0.00 | 0.00 | 53 | 1027.0 |
| 20260902141856 | 69 | 236 | 2.0 | 3.0 | 0.00 | 0.00 | 0.00 | 53 | 1027.3 |
| 20260902141351 | 68 | 252 | 4.0 | 5.0 | 0.00 | 0.00 | 0.00 | 57 | 1027.1 |
| 20260902140850 | 68 | 252 | 4.0 | 5.0 | 0.00 | 0.00 | 0.00 | 57 | 1026.8 |
| 20260902140346 | 68 | 250 | 2.0 | 2.0 | 0.00 | 0.00 | 0.00 | 58 | 1027.1 |
| 20260902135840 | 67 | 255 | 4.0 | 5.0 | 0.00 | 0.00 | 0.00 | 59 | 1027.0 |
| 20260902135336 | 66 | 240 | 3.0 | 3.0 | 0.00 | 0.00 | 0.00 | 60 | 1027.1 |
| 20260902134835 | 66 | 239 | 3.0 | 5.0 | 0.00 | 0.00 | 0.00 | 61 | 1026.9 |
| 20260902134330 | 65 | 267 | 3.0 | 3.0 | 0.00 | 0.00 | 0.00 | 62 | 1026.9 |
| 20260902133820 | 65 | 256 | 4.0 | 7.0 | 0.00 | 0.00 | 0.00 | 63 | 1026.5 |
| 20260902133320 | 65 | 244 | 5.0 | 5.0 | 0.00 | 0.00 | 0.00 | 63 | 1026.8 |
| 20260902132815 | 64 | 242 | 3.0 | 3.0 | 0.00 | 0.00 | 0.00 | 63 | 1026.5 |
| 20260902132310 | 64 | 243 | 3.0 | 3.0 | 0.00 | 0.00 | 0.00 | 63 | 1026.8 |
| 20260902131806 | 64 | 242 | 3.0 | 3.0 | 0.00 | 0.00 | 0.00 | 64 | 1026.5 |
| 20260902131302 | 64 | 249 | 4.0 | 5.0 | 0.00 | 0.00 | 0.00 | 64 | 1026.4 |
| 20260902130801 | 63 | 265 | 3.0 | 3.0 | 0.00 | 0.00 | 0.00 | 65 | 1026.6 |
| 20260902130257 | 63 | 259 | 2.0 | 3.0 | 0.00 | 0.00 | 0.00 | 65 | 1026.3 |
| 20260902125752 | 63 | 245 | 2.0 | 3.0 | 0.00 | 0.00 | 0.00 | 65 | 1026.3 |
| 20260902125248 | 62 | 246 | 2.0 | 3.0 | 0.00 | 0.00 | 0.00 | 66 | 1026.5 |
| 20260902124744 | 62 | 250 | 4.0 | 7.0 | 0.00 | 0.00 | 0.00 | 67 | 1026.6 |
| 20260902124240 | 62 | 237 | 3.0 | 5.0 | 0.00 | 0.00 | 0.00 | 68 | 1026.4 |
| 20260902123735 | 62 | 244 | 3.0 | 3.0 | 0.00 | 0.00 | 0.00 | 67 | 1026.5 |
| 20260902123231 | 62 | 249 | 2.0 | 2.0 | 0.00 | 0.00 | 0.00 | 67 | 1026.4 |
| 20260902122729 | 62 | 245 | 0.0 | 0.0 | 0.00 | 0.00 | 0.00 | 67 | 1026.4 |
| 20260902122226 | 62 | 253 | 2.0 | 3.0 | 0.00 | 0.00 | 0.00 | 66 | 1026.1 |
| 20260902121725 | 63 | 245 | 2.0 | 2.0 | 0.00 | 0.00 | 0.00 | 65 | 1026.3 |
| 20260902121221 | 63 | 247 | 1.0 | 2.0 | 0.00 | 0.00 | 0.00 | 64 | 1026.1 |
| 20260902120716 | 64 | 245 | 1.0 | 2.0 | 0.00 | 0.00 | 0.00 | 63 | 1026.0 |
| 20260902120213 | 64 | 245 | 1.0 | 2.0 | 0.00 | 0.00 | 0.00 | 63 | 1025.9 |
| 20260902115712 | 64 | 251 | 0.0 | 2.0 | 0.00 | 0.00 | 0.00 | 63 | 1026.1 |
| 20260902115209 | 63 | 246 | 3.0 | 3.0 | 0.00 | 0.00 | 0.00 | 63 | 1025.9 |
| 20260902114704 | 63 | 244 | 1.0 | 2.0 | 0.00 | 0.00 | 0.00 | 64 | 1026.0 |
| 20260902114200 | 63 | 248 | 0.0 | 2.0 | 0.00 | 0.00 | 0.00 | 65 | 1025.9 |
| 20260902113655 | 64 | 243 | 0.0 | 2.0 | 0.00 | 0.00 | 0.00 | 64 | 1025.8 |
| 20260902113150 | 64 | 251 | 1.0 | 2.0 | 0.00 | 0.00 | 0.00 | 64 | 1025.6 |
| 20260902112649 | 64 | 247 | 2.0 | 2.0 | 0.00 | 0.00 | 0.00 | 64 | 1026.1 |
| 20260902112147 | 64 | 252 | 3.0 | 3.0 | 0.00 | 0.00 | 0.00 | 63 | 1025.6 |
| 20260902111648 | 64 | 251 | 2.0 | 2.0 | 0.00 | 0.00 | 0.00 | 64 | 1026.0 |
| 20260902111143 | 64 | 240 | 3.0 | 3.0 | 0.00 | 0.00 | 0.00 | 63 | 1025.9 |
| 20260902110639 | 63 | 267 | 3.0 | 3.0 | 0.00 | 0.00 | 0.00 | 65 | 1025.6 |
| 20260902110135 | 63 | 248 | 2.0 | 2.0 | 0.00 | 0.00 | 0.00 | 65 | 1025.8 |
| 20260902105634 | 63 | 243 | 2.0 | 2.0 | 0.00 | 0.00 | 0.00 | 65 | 1025.9 |
| 20260902105130 | 63 | 251 | 3.0 | 3.0 | 0.00 | 0.00 | 0.00 | 65 | 1025.9 |
| 20260902104625 | 63 | 249 | 2.0 | 3.0 | 0.00 | 0.00 | 0.00 | 65 | 1025.8 |
| 20260902104120 | 63 | 247 | 2.0 | 2.0 | 0.00 | 0.00 | 0.00 | 64 | 1026.0 |
| 20260902103619 | 63 | 254 | 2.0 | 3.0 | 0.00 | 0.00 | 0.00 | 64 | 1025.8 |
| 20260902103115 | 63 | 255 | 2.0 | 3.0 | 0.00 | 0.00 | 0.00 | 63 | 1025.8 |
| 20260902102611 | 63 | 243 | 2.0 | 2.0 | 0.00 | 0.00 | 0.00 | 62 | 1026.0 |
| 20260902102108 | 63 | 235 | 3.0 | 5.0 | 0.00 | 0.00 | 0.00 | 62 | 1026.0 |
| 20260902101603 | 63 | 236 | 2.0 | 3.0 | 0.00 | 0.00 | 0.00 | 62 | 1025.9 |
| 20260902101102 | 63 | 259 | 4.0 | 5.0 | 0.00 | 0.00 | 0.00 | 62 | 1025.9 |
| 20260902100551 | 63 | 237 | 3.0 | 5.0 | 0.00 | 0.00 | 0.00 | 62 | 1025.8 |
| 20260902100046 | 63 | 247 | 3.0 | 3.0 | 0.00 | 0.00 | 0.00 | 62 | 1025.8 |
| 20260902095540 | 63 | 248 | 3.0 | 3.0 | 0.00 | 0.00 | 0.00 | 62 | 1025.6 |
| 20260902095039 | 64 | 234 | 3.0 | 3.0 | 0.00 | 0.00 | 0.00 | 62 | 1025.6 |
| 20260902094535 | 64 | 244 | 3.0 | 3.0 | 0.00 | 0.00 | 0.00 | 61 | 1025.9 |
| 20260902094031 | 64 | 242 | 3.0 | 5.0 | 0.00 | 0.00 | 0.00 | 61 | 1026.1 |
| 20260902093525 | 64 | 262 | 4.0 | 5.0 | 0.00 | 0.00 | 0.00 | 62 | 1025.8 |
| 20260902093025 | 64 | 229 | 3.0 | 3.0 | 0.00 | 0.00 | 0.00 | 61 | 1026.0 |
| 20260902092520 | 64 | 264 | 5.0 | 7.0 | 0.00 | 0.00 | 0.00 | 61 | 1025.9 |
| 20260902092015 | 64 | 242 | 7.0 | 12.0 | 0.00 | 0.00 | 0.00 | 60 | 1025.8 |
| 20260902091510 | 64 | 219 | 4.0 | 5.0 | 0.00 | 0.00 | 0.00 | 60 | 1025.8 |
| 20260902091006 | 64 | 277 | 3.0 | 3.0 | 0.00 | 0.00 | 0.00 | 60 | 1025.9 |
| 20260902090502 | 64 | 257 | 4.0 | 5.0 | 0.00 | 0.00 | 0.00 | 60 | 1026.0 |
| 20260902090000 | 64 | 265 | 4.0 | 7.0 | 0.00 | 0.00 | 0.00 | 59 | 1025.9 |
| 20260902085455 | 64 | 243 | 6.0 | 7.0 | 0.00 | 0.00 | 0.00 | 59 | 1026.0 |
| 20260902084950 | 64 | 257 | 3.0 | 3.0 | 0.00 | 0.00 | 0.00 | 59 | 1026.1 |
| 20260902084447 | 65 | 255 | 4.0 | 7.0 | 0.00 | 0.00 | 0.00 | 60 | 1026.0 |
| 20260902083942 | 65 | 250 | 3.0 | 5.0 | 0.00 | 0.00 | 0.00 | 60 | 1025.9 |
| 20260902083442 | 65 | 246 | 3.0 | 3.0 | 0.00 | 0.00 | 0.00 | 61 | 1026.1 |
| 20260902082937 | 64 | 236 | 3.0 | 3.0 | 0.00 | 0.00 | 0.00 | 62 | 1026.3 |
| 20260902082433 | 65 | 257 | 6.0 | 9.0 | 0.00 | 0.00 | 0.00 | 62 | 1026.0 |
| 20260902081929 | 65 | 257 | 6.0 | 9.0 | 0.00 | 0.00 | 0.00 | 62 | 1026.1 |
| 20260902081426 | 65 | 260 | 5.0 | 7.0 | 0.00 | 0.00 | 0.00 | 61 | 1026.1 |
| 20260902080920 | 65 | 218 | 5.0 | 7.0 | 0.00 | 0.00 | 0.00 | 61 | 1026.0 |
| 20260902080416 | 65 | 281 | 4.0 | 5.0 | 0.00 | 0.00 | 0.00 | 61 | 1026.3 |
| 20260902075915 | 65 | 239 | 3.0 | 3.0 | 0.00 | 0.00 | 0.00 | 61 | 1026.3 |
| 20260902075412 | 65 | 245 | 3.0 | 3.0 | 0.00 | 0.00 | 0.00 | 60 | 1026.4 |
| 20260902074907 | 66 | 248 | 3.0 | 5.0 | 0.00 | 0.00 | 0.00 | 60 | 1026.3 |
| 20260902074403 | 66 | 257 | 7.0 | 9.0 | 0.00 | 0.00 | 0.00 | 60 | 1026.4 |
| 20260902073857 | 66 | 245 | 3.0 | 5.0 | 0.00 | 0.00 | 0.00 | 60 | 1026.4 |
| 20260902073354 | 65 | 244 | 5.0 | 9.0 | 0.00 | 0.00 | 0.00 | 60 | 1026.4 |
| 20260902072849 | 66 | 260 | 3.0 | 3.0 | 0.00 | 0.00 | 0.00 | 60 | 1026.3 |
| 20260902072345 | 66 | 256 | 3.0 | 3.0 | 0.00 | 0.00 | 0.00 | 60 | 1026.3 |
| 20260902071842 | 66 | 244 | 3.0 | 3.0 | 0.00 | 0.00 | 0.00 | 60 | 1026.3 |
| 20260902071341 | 65 | 241 | 5.0 | 7.0 | 0.00 | 0.00 | 0.00 | 60 | 1026.3 |
| 20260902070837 | 66 | 246 | 3.0 | 3.0 | 0.00 | 0.00 | 0.00 | 59 | 1026.3 |
| 20260902070332 | 65 | 261 | 5.0 | 5.0 | 0.00 | 0.00 | 0.00 | 60 | 1026.1 |
| 20260902065831 | 65 | 251 | 5.0 | 7.0 | 0.00 | 0.00 | 0.00 | 60 | 1026.4 |
| 20260902065326 | 65 | 238 | 3.0 | 5.0 | 0.00 | 0.00 | 0.00 | 60 | 1026.1 |
| 20260902064821 | 66 | 246 | 3.0 | 3.0 | 0.00 | 0.00 | 0.00 | 60 | 1026.3 |
| 20260902064317 | 65 | 264 | 5.0 | 7.0 | 0.00 | 0.00 | 0.00 | 60 | 1026.1 |
| 20260902063813 | 65 | 244 | 4.0 | 5.0 | 0.00 | 0.00 | 0.00 | 61 | 1026.3 |
| 20260902063313 | 65 | 256 | 3.0 | 3.0 | 0.00 | 0.00 | 0.00 | 60 | 1026.3 |
| 20260902062807 | 65 | 254 | 2.0 | 3.0 | 0.00 | 0.00 | 0.00 | 60 | 1026.4 |
| 20260902062305 | 66 | 246 | 3.0 | 3.0 | 0.00 | 0.00 | 0.00 | 59 | 1026.3 |
| 20260902061801 | 66 | 235 | 3.0 | 3.0 | 0.00 | 0.00 | 0.00 | 60 | 1026.3 |
| 20260902061256 | 66 | 253 | 3.0 | 3.0 | 0.00 | 0.00 | 0.00 | 60 | 1026.1 |
| 20260902060754 | 66 | 246 | 2.0 | 2.0 | 0.00 | 0.00 | 0.00 | 60 | 1026.3 |
| 20260902060249 | 66 | 248 | 2.0 | 3.0 | 0.00 | 0.00 | 0.00 | 60 | 1026.3 |
| 20260902055744 | 65 | 244 | 2.0 | 3.0 | 0.00 | 0.06 | 0.06 | 60 | 1026.0 |
| 20260902055240 | 65 | 253 | 2.0 | 3.0 | 0.00 | 0.06 | 0.06 | 60 | 1026.0 |
| 20260902054735 | 66 | 243 | 3.0 | 3.0 | 0.00 | 0.06 | 0.06 | 60 | 1026.1 |
| 20260902054230 | 66 | 262 | 2.0 | 3.0 | 0.00 | 0.06 | 0.06 | 60 | 1026.5 |
| 20260902053725 | 66 | 247 | 3.0 | 3.0 | 0.00 | 0.06 | 0.06 | 60 | 1026.4 |
| 20260902053220 | 66 | 233 | 3.0 | 3.0 | 0.00 | 0.06 | 0.06 | 60 | 1026.4 |
| 20260902052719 | 66 | 259 | 3.0 | 3.0 | 0.00 | 0.06 | 0.06 | 60 | 1026.1 |
| 20260902052215 | 66 | 253 | 4.0 | 5.0 | 0.00 | 0.06 | 0.06 | 61 | 1026.4 |
| 20260902051714 | 66 | 248 | 3.0 | 3.0 | 0.00 | 0.06 | 0.06 | 61 | 1026.3 |
| 20260902051209 | 66 | 264 | 5.0 | 5.0 | 0.00 | 0.06 | 0.06 | 61 | 1026.1 |
| 20260902050703 | 65 | 255 | 3.0 | 5.0 | 0.00 | 0.06 | 0.06 | 61 | 1026.5 |
| 20260902050159 | 65 | 250 | 3.0 | 3.0 | 0.00 | 0.06 | 0.06 | 61 | 1026.5 |
| 20260902045653 | 66 | 262 | 3.0 | 5.0 | 0.00 | 0.06 | 0.06 | 61 | 1026.5 |
| 20260902045149 | 65 | 253 | 2.0 | 2.0 | 0.00 | 0.06 | 0.06 | 61 | 1026.3 |
| 20260902044644 | 65 | 247 | 2.0 | 3.0 | 0.00 | 0.06 | 0.06 | 61 | 1026.4 |
| 20260902044140 | 66 | 238 | 3.0 | 3.0 | 0.00 | 0.06 | 0.06 | 61 | 1026.6 |
| 20260902043635 | 66 | 242 | 4.0 | 5.0 | 0.00 | 0.06 | 0.06 | 61 | 1026.3 |
| 20260902043130 | 66 | 250 | 4.0 | 5.0 | 0.00 | 0.06 | 0.06 | 60 | 1026.6 |
| 20260902042629 | 67 | 254 | 3.0 | 3.0 | 0.00 | 0.06 | 0.06 | 59 | 1026.5 |
| 20260902042125 | 67 | 232 | 4.0 | 5.0 | 0.00 | 0.06 | 0.06 | 59 | 1026.4 |
| 20260902041625 | 67 | 252 | 3.0 | 3.0 | 0.00 | 0.06 | 0.06 | 58 | 1026.8 |
| 20260902041119 | 67 | 235 | 3.0 | 3.0 | 0.00 | 0.06 | 0.06 | 58 | 1026.6 |
| 20260902040619 | 67 | 256 | 3.0 | 3.0 | 0.00 | 0.06 | 0.06 | 59 | 1026.6 |
| 20260902040114 | 67 | 249 | 4.0 | 5.0 | 0.00 | 0.06 | 0.06 | 59 | 1026.4 |
| 20260902035613 | 67 | 247 | 3.0 | 3.0 | 0.00 | 0.06 | 0.06 | 58 | 1026.3 |
| 20260902035108 | 67 | 251 | 4.0 | 7.0 | 0.00 | 0.06 | 0.06 | 58 | 1026.3 |
| 20260902034607 | 67 | 242 | 3.0 | 3.0 | 0.00 | 0.06 | 0.06 | 58 | 1026.0 |
| 20260902034107 | 67 | 243 | 4.0 | 5.0 | 0.00 | 0.06 | 0.06 | 58 | 1026.1 |
| 20260902033606 | 68 | 260 | 3.0 | 5.0 | 0.00 | 0.06 | 0.06 | 57 | 1025.9 |
| 20260902033101 | 68 | 243 | 3.0 | 5.0 | 0.00 | 0.06 | 0.06 | 57 | 1026.3 |
| 20260902032600 | 68 | 236 | 5.0 | 5.0 | 0.00 | 0.06 | 0.06 | 57 | 1026.4 |
| 20260902032055 | 68 | 244 | 3.0 | 3.0 | 0.00 | 0.06 | 0.06 | 57 | 1026.1 |
| 20260902031549 | 68 | 250 | 4.0 | 5.0 | 0.00 | 0.06 | 0.06 | 57 | 1026.0 |
| 20260902031045 | 68 | 252 | 4.0 | 5.0 | 0.00 | 0.06 | 0.06 | 57 | 1026.1 |
| 20260902030540 | 68 | 257 | 2.0 | 3.0 | 0.00 | 0.06 | 0.06 | 58 | 1025.4 |
| 20260902030040 | 68 | 249 | 3.0 | 3.0 | 0.00 | 0.06 | 0.06 | 58 | 1025.9 |
| 20260902025534 | 68 | 253 | 4.0 | 5.0 | 0.00 | 0.06 | 0.06 | 57 | 1025.6 |
| 20260902025029 | 68 | 255 | 3.0 | 5.0 | 0.00 | 0.06 | 0.06 | 57 | 1025.4 |
| 20260902024520 | 68 | 255 | 3.0 | 3.0 | 0.00 | 0.06 | 0.06 | 57 | 1025.5 |
| 20260902024020 | 68 | 232 | 2.0 | 3.0 | 0.00 | 0.06 | 0.06 | 56 | 1025.4 |
| 20260902023516 | 68 | 245 | 3.0 | 3.0 | 0.00 | 0.06 | 0.06 | 56 | 1025.5 |
| 20260902023015 | 68 | 259 | 4.0 | 5.0 | 0.00 | 0.06 | 0.06 | 55 | 1025.5 |
| 20260902022510 | 68 | 251 | 5.0 | 7.0 | 0.00 | 0.06 | 0.06 | 55 | 1025.3 |
| 20260902022006 | 69 | 232 | 5.0 | 7.0 | 0.00 | 0.06 | 0.06 | 55 | 1025.3 |
| 20260902021501 | 69 | 242 | 5.0 | 7.0 | 0.00 | 0.06 | 0.06 | 55 | 1025.1 |
| 20260902020956 | 69 | 244 | 7.0 | 10.0 | 0.00 | 0.06 | 0.06 | 55 | 1025.3 |
| 20260902020452 | 69 | 238 | 4.0 | 5.0 | 0.00 | 0.06 | 0.06 | 55 | 1024.9 |
| 20260902015948 | 69 | 247 | 3.0 | 5.0 | 0.00 | 0.06 | 0.06 | 55 | 1025.1 |
| 20260902015443 | 69 | 261 | 5.0 | 7.0 | 0.00 | 0.06 | 0.06 | 55 | 1025.0 |
| 20260902014938 | 69 | 224 | 3.0 | 3.0 | 0.00 | 0.06 | 0.06 | 54 | 1024.9 |
| 20260902014435 | 69 | 229 | 2.0 | 3.0 | 0.00 | 0.06 | 0.06 | 54 | 1024.8 |
| 20260902013934 | 69 | 239 | 4.0 | 5.0 | 0.00 | 0.06 | 0.06 | 53 | 1025.1 |
| 20260902013430 | 70 | 246 | 4.0 | 5.0 | 0.00 | 0.06 | 0.06 | 53 | 1024.9 |
| 20260902012925 | 70 | 257 | 3.0 | 3.0 | 0.00 | 0.06 | 0.06 | 52 | 1025.0 |
| 20260902012420 | 70 | 260 | 6.0 | 10.0 | 0.00 | 0.06 | 0.06 | 52 | 1025.0 |
| 20260902011916 | 70 | 244 | 4.0 | 5.0 | 0.00 | 0.06 | 0.06 | 51 | 1024.6 |
| 20260902011411 | 70 | 249 | 4.0 | 9.0 | 0.00 | 0.06 | 0.06 | 50 | 1024.6 |
| 20260902010910 | 71 | 231 | 3.0 | 3.0 | 0.00 | 0.06 | 0.06 | 50 | 1025.0 |
| 20260902010405 | 71 | 254 | 2.0 | 2.0 | 0.00 | 0.06 | 0.06 | 50 | 1024.8 |
| 20260902005905 | 71 | 268 | 3.0 | 3.0 | 0.00 | 0.06 | 0.06 | 49 | 1025.0 |
| 20260902005404 | 71 | 227 | 3.0 | 5.0 | 0.00 | 0.06 | 0.06 | 49 | 1024.8 |
| 20260902004901 | 71 | 222 | 4.0 | 7.0 | 0.00 | 0.06 | 0.06 | 48 | 1024.8 |
| 20260902004400 | 71 | 243 | 6.0 | 7.0 | 0.00 | 0.06 | 0.06 | 47 | 1024.6 |
| 20260902003855 | 72 | 251 | 5.0 | 7.0 | 0.00 | 0.06 | 0.06 | 47 | 1024.8 |
| 20260902003350 | 72 | 249 | 6.0 | 9.0 | 0.00 | 0.06 | 0.06 | 47 | 1024.8 |
| 20260902002846 | 72 | 246 | 5.0 | 7.0 | 0.00 | 0.06 | 0.06 | 46 | 1024.6 |
| 20260902002344 | 72 | 238 | 5.0 | 7.0 | 0.00 | 0.06 | 0.06 | 46 | 1024.8 |
| 20260902001840 | 72 | 240 | 4.0 | 5.0 | 0.00 | 0.06 | 0.06 | 46 | 1024.8 |
| 20260902001335 | 72 | 249 | 3.0 | 3.0 | 0.00 | 0.06 | 0.06 | 46 | 1024.8 |
| 20260902000830 | 72 | 256 | 5.0 | 7.0 | 0.00 | 0.06 | 0.06 | 46 | 1024.4 |
| 20260902000324 | 72 | 250 | 5.0 | 7.0 | 0.00 | 0.06 | 0.06 | 46 | 1024.9 |
| 20260901235820 | 73 | 256 | 3.0 | 5.0 | 0.00 | 0.06 | 0.06 | 46 | 1024.9 |
| 20260901235319 | 73 | 250 | 3.0 | 3.0 | 0.00 | 0.06 | 0.06 | 46 | 1024.8 |
| 20260901234814 | 73 | 244 | 5.0 | 5.0 | 0.00 | 0.06 | 0.06 | 46 | 1025.1 |
| 20260901234308 | 73 | 235 | 5.0 | 5.0 | 0.00 | 0.06 | 0.06 | 45 | 1025.0 |
| 20260901233803 | 73 | 269 | 6.0 | 9.0 | 0.00 | 0.06 | 0.06 | 45 | 1024.6 |
| 20260901233259 | 73 | 253 | 5.0 | 5.0 | 0.00 | 0.06 | 0.06 | 46 | 1024.6 |
| 20260901232755 | 74 | 277 | 7.0 | 10.0 | 0.00 | 0.06 | 0.06 | 44 | 1024.9 |
| 20260901232249 | 75 | 256 | 4.0 | 7.0 | 0.00 | 0.06 | 0.06 | 43 | 1024.8 |
| 20260901231746 | 75 | 274 | 7.0 | 9.0 | 0.00 | 0.06 | 0.06 | 43 | 1024.6 |
| 20260901231242 | 76 | 247 | 5.0 | 9.0 | 0.00 | 0.06 | 0.06 | 44 | 1024.6 |
| 20260901230738 | 77 | 248 | 5.0 | 7.0 | 0.00 | 0.06 | 0.06 | 41 | 1024.6 |
| 20260901230237 | 76 | 239 | 5.0 | 7.0 | 0.00 | 0.06 | 0.06 | 42 | 1024.5 |
| 20260901225732 | 75 | 248 | 3.0 | 3.0 | 0.00 | 0.06 | 0.06 | 44 | 1024.5 |
| 20260901225226 | 74 | 229 | 5.0 | 7.0 | 0.00 | 0.06 | 0.06 | 45 | 1024.6 |
| 20260901224723 | 73 | 223 | 9.0 | 12.0 | 0.00 | 0.06 | 0.06 | 47 | 1024.9 |
| 20260901224218 | 74 | 252 | 7.0 | 9.0 | 0.00 | 0.06 | 0.06 | 46 | 1024.9 |
| 20260901223714 | 74 | 249 | 5.0 | 7.0 | 0.00 | 0.06 | 0.06 | 45 | 1024.8 |
| 20260901223209 | 76 | 231 | 5.0 | 7.0 | 0.00 | 0.06 | 0.06 | 44 | 1024.9 |
| 20260901222705 | 75 | 261 | 4.0 | 5.0 | 0.00 | 0.06 | 0.06 | 45 | 1025.1 |
| 20260901222201 | 74 | 278 | 6.0 | 7.0 | 0.00 | 0.06 | 0.06 | 45 | 1025.3 |
| 20260901221657 | 76 | 245 | 4.0 | 5.0 | 0.00 | 0.06 | 0.06 | 45 | 1025.0 |
| 20260901221153 | 77 | 244 | 2.0 | 3.0 | 0.00 | 0.06 | 0.06 | 43 | 1025.3 |
| 20260901220652 | 78 | 292 | 10.0 | 12.0 | 0.00 | 0.06 | 0.06 | 42 | 1025.1 |
| 20260901220151 | 77 | 280 | 5.0 | 7.0 | 0.00 | 0.06 | 0.06 | 45 | 1025.3 |
| 20260901215650 | 76 | 232 | 3.0 | 3.0 | 0.00 | 0.06 | 0.06 | 45 | 1025.1 |
| 20260901215145 | 76 | 283 | 4.0 | 5.0 | 0.00 | 0.06 | 0.06 | 45 | 1025.3 |
| 20260901214642 | 76 | 226 | 5.0 | 7.0 | 0.00 | 0.06 | 0.06 | 45 | 1025.4 |
| 20260901214136 | 73 | 247 | 0.0 | 2.0 | 0.00 | 0.06 | 0.06 | 48 | 1025.5 |
| 20260901213631 | 74 | 241 | 4.0 | 5.0 | 0.00 | 0.06 | 0.06 | 49 | 1025.5 |
| 20260901213125 | 77 | 257 | 4.0 | 5.0 | 0.00 | 0.06 | 0.06 | 46 | 1025.5 |
| 20260901212619 | 77 | 209 | 5.0 | 7.0 | 0.00 | 0.06 | 0.06 | 45 | 1025.3 |
| 20260901212116 | 76 | 252 | 3.0 | 5.0 | 0.00 | 0.06 | 0.06 | 46 | 1025.3 |
| 20260901211610 | 77 | 236 | 2.0 | 3.0 | 0.00 | 0.06 | 0.06 | 45 | 1025.5 |
| 20260901211107 | 76 | 291 | 8.0 | 10.0 | 0.00 | 0.06 | 0.06 | 47 | 1025.6 |
| 20260901210602 | 77 | 238 | 8.0 | 10.0 | 0.00 | 0.06 | 0.06 | 42 | 1025.8 |
| 20260901210058 | 77 | 209 | 9.0 | 12.0 | 0.00 | 0.06 | 0.06 | 43 | 1025.9 |
| 20260901205553 | 77 | 250 | 10.0 | 14.0 | 0.00 | 0.06 | 0.06 | 42 | 1025.9 |
| 20260901205048 | 79 | 252 | 7.0 | 9.0 | 0.00 | 0.06 | 0.06 | 42 | 1025.9 |
| 20260901204544 | 79 | 283 | 3.0 | 5.0 | 0.00 | 0.06 | 0.06 | 41 | 1025.9 |
| 20260901204039 | 77 | 231 | 2.0 | 2.0 | 0.00 | 0.06 | 0.06 | 48 | 1026.1 |
| 20260901203539 | 76 | 240 | 2.0 | 2.0 | 0.00 | 0.06 | 0.06 | 48 | 1026.1 |
| 20260901203034 | 75 | 243 | 8.0 | 14.0 | 0.00 | 0.06 | 0.06 | 51 | 1026.3 |
| 20260901202529 | 78 | 223 | 5.0 | 7.0 | 0.00 | 0.06 | 0.06 | 46 | 1026.3 |
| 20260901202025 | 77 | 213 | 6.0 | 7.0 | 0.00 | 0.06 | 0.06 | 46 | 1026.1 |
| 20260901201520 | 75 | 265 | 5.0 | 7.0 | 0.00 | 0.06 | 0.06 | 49 | 1026.3 |
| 20260901201014 | 75 | 226 | 7.0 | 10.0 | 0.00 | 0.06 | 0.06 | 50 | 1026.3 |
| 20260901200509 | 76 | 268 | 4.0 | 5.0 | 0.00 | 0.06 | 0.06 | 50 | 1026.3 |
| 20260901200008 | 75 | 247 | 4.0 | 5.0 | 0.00 | 0.06 | 0.06 | 48 | 1026.5 |
| 20260901195506 | 76 | 258 | 6.0 | 9.0 | 0.00 | 0.06 | 0.06 | 47 | 1026.6 |
| 20260901195006 | 75 | 256 | 7.0 | 12.0 | 0.00 | 0.06 | 0.06 | 46 | 1026.4 |
| 20260901194501 | 77 | 246 | 6.0 | 10.0 | 0.00 | 0.06 | 0.06 | 44 | 1026.6 |
| 20260901193957 | 75 | 234 | 3.0 | 5.0 | 0.00 | 0.06 | 0.06 | 46 | 1026.6 |
| 20260901193456 | 75 | 219 | 8.0 | 14.0 | 0.00 | 0.06 | 0.06 | 46 | 1026.8 |
| 20260901192956 | 76 | 223 | 3.0 | 3.0 | 0.00 | 0.06 | 0.06 | 46 | 1026.6 |
| 20260901192452 | 75 | 244 | 6.0 | 10.0 | 0.00 | 0.06 | 0.06 | 47 | 1026.4 |
| 20260901191948 | 74 | 262 | 3.0 | 5.0 | 0.00 | 0.06 | 0.06 | 45 | 1026.6 |
| 20260901191443 | 74 | 258 | 3.0 | 3.0 | 0.00 | 0.06 | 0.06 | 49 | 1026.9 |
| 20260901190939 | 74 | 231 | 6.0 | 10.0 | 0.00 | 0.06 | 0.06 | 48 | 1026.9 |
| 20260901190434 | 74 | 270 | 3.0 | 3.0 | 0.00 | 0.06 | 0.06 | 50 | 1026.8 |
| 20260901185932 | 74 | 289 | 5.0 | 5.0 | 0.00 | 0.06 | 0.06 | 50 | 1027.0 |
| 20260901185432 | 73 | 256 | 3.0 | 3.0 | 0.00 | 0.06 | 0.06 | 52 | 1027.0 |
| 20260901184926 | 71 | 225 | 3.0 | 3.0 | 0.00 | 0.06 | 0.06 | 54 | 1027.4 |
| 20260901184422 | 72 | 231 | 6.0 | 7.0 | 0.00 | 0.06 | 0.06 | 55 | 1027.1 |
| 20260901183917 | 72 | 243 | 5.0 | 5.0 | 0.00 | 0.06 | 0.06 | 54 | 1027.1 |
| 20260901183416 | 72 | 229 | 2.0 | 3.0 | 0.00 | 0.06 | 0.06 | 54 | 1027.4 |
| 20260901182912 | 72 | 298 | 4.0 | 5.0 | 0.00 | 0.06 | 0.06 | 54 | 1027.3 |
| 20260901182407 | 71 | 252 | 4.0 | 5.0 | 0.00 | 0.06 | 0.06 | 55 | 1027.4 |
| 20260901181902 | 71 | 241 | 3.0 | 3.0 | 0.00 | 0.06 | 0.06 | 56 | 1027.4 |
| 20260901181357 | 70 | 246 | 4.0 | 5.0 | 0.00 | 0.06 | 0.06 | 56 | 1027.6 |
| 20260901180855 | 70 | 242 | 6.0 | 9.0 | 0.00 | 0.06 | 0.06 | 54 | 1027.6 |